User: anonymous   Login
Location: Peterborough
(44.3091°N, 78.3197°W)
Time: 17:01:19
(UTC-04:00)
Language:

Tiros 1 - Orbit

View from above orbital plane
View from above orbital plane
View from above satellite
View from above satellite

Ground track
Ground track

The orbit data is extracted from the following two-line orbital elements,

1 00029U 60002B   24205.34115605  .00002129  00000-0  33091-3 0  9990
2 00029  48.3783  77.6803 0023220 164.1921 195.9721 14.76510139439502
Epoch (UTC): 23 July 2024 08:11:15
Eccentricity: 0.0023220
inclination: 48.3783°
perigee height: 624 km
apogee height: 656 km
right ascension of ascending node: 77.6803°
argument of perigee: 164.1921°
revolutions per day: 14.76510139
mean anomaly at epoch: 195.9721°
orbit number at epoch: 43950

The dashed part of the orbit path shows where the satellite is in the earth's shadow,  

DLR